{"data":{"norad_id":68944,"intl_designator":"2026-098AB","name":"KUIPER-00446","alt_names":[],"object_type":"PAYLOAD","status":"ACTIVE","operator":null,"country":"US","launch_date":"2026-04-30","launch_site_code":"FRGUI","launch_vehicle":null,"mission":null,"orbit_class":"UNKNOWN","rcs_meters":null,"size_class":null,"mass_kg":null,"dimensions":null,"purposes":[],"wikipedia_slug":null,"has_3d_model":false,"image_url":null,"decayed_at":null,"tle_current":{"epoch":"2026-09-19T18:26:17.371968Z","epoch_age_seconds":82579,"freshness":"FRESH","line1":"1 68944U 26098AB  26262.76825662 -.00000410  00000+0 -24758-4 0  9992","line2":"2 68944  51.9014 354.9374 0000557 221.1569 138.9351 14.79930841 21550","mean_motion":14.79930841,"eccentricity":5.57e-5,"inclination_deg":51.9014,"raan_deg":354.9374,"arg_perigee_deg":221.1569,"mean_anomaly_deg":138.9351,"bstar":-2.4758e-5,"rev_number":2155,"period_min":97.301844120431,"perigee_km":629.15211686621,"apogee_km":629.93277235634,"semimajor_km":7007.6794446113,"source":"CELESTRAK","updated_at":"2026-09-20T09:00:24.583582Z"}}}